Location: Bremen
(53.0793°N, 8.8017°E)
Time: 22:47:47
(UTC+02:00)

Vanguard 2 Rocket - Pass Details

Date: 18 April 2024
Orbit: 556 x 3304 km, 32.9° (Epoch: 20 May)

Event Time Altitude Azimuth Distance (km) Brightness Sun altitude
Rises 02:52:06 0° 258° (WSW) 7,219 11.2 -23.3°
Reaches altitude 10° 02:57:33 10° 251° (WSW) 6,260 10.7 -22.9°
Maximum altitude 03:14:07 35° 196° (SSW) 4,135 9.6 -21.8°
Drops below altitude 10° 03:27:09 10° 138° (SE) 4,934 10.5 -20.8°
Sets 03:30:50 0° 130° (SE) 5,586 10.9 -20.5°
